Hourly Weather Roundup
Issued by NWS Central Illinois

Home | Current Version | Previous Version | Text Only | Print | Product List | Glossary On
Versions: 1 2 3 4 5 6 7 8 9 10 11 12 13 14 15 16 17 18 19 20 21 22 23 24 25 26 27 28 29 30 31 32 33 34 35 36 37 38 39 40 41 42 43 44 45 46 47 48 49 50
000
NZUS43 KILX 231310
HWRILX

AREA WEATHER ROUNDUP
NATIONAL WEATHER SERVICE, LINCOLN IL
800 AM CDT THU OCT 23 2014


CITY           SKY/WX    TMP DP  RH WIND       PRES   REMARKS
BLOOMINGTON    CLEAR     38  37  96 S7        30.22S WCI  33
CHAMPAIGN      PTCLDY    37  36  96 SE6       30.23R FOG     WCI  32
DECATUR        CLEAR     36  35  96 CALM      30.23R
FLORA          CLEAR     37  37 100 CALM      30.24S FOG
GALESBURG      CLOUDY    43  38  85 SE6       30.16S
JACKSONVILLE   MOCLDY    46  41  82 S7        30.19F
LACON          PTCLDY    40  36  85 SE6       30.19F
LAWRENCEVILLE  CLEAR     40  39  97 CALM      30.26R FOG
LITCHFIELD     PTCLDY    40  38  91 S5        30.22R
$$


CITY           SKY/WX    TMP DP  RH WIND       PRES   REMARKS
LINCOLN        CLEAR     37  36  95 CALM      30.21S
MACOMB         CLOUDY    41  39  93 S7        30.18F
MATTOON        PTCLDY    40  38  93 SE7       30.23R
MT CARMEL AP   FOG       39  37  93 CALM      30.25R VSB<1/4
OLNEY-NOBLE AP CLEAR     37  37 100 CALM      30.25S FOG
PARIS          PTCLDY    37  37 100 CALM      30.26R FOG
PEORIA         PTCLDY    43  37  79 S6        30.20S
PONTIAC        CLEAR     32  32  99 CALM      30.23R FOG
RANTOUL        PTCLDY    38  37  95 SE5       30.23S FOG     WCI  34
ROBINSON       CLEAR     35  35 100 CALM      30.27R
SPRINGFIELD    PTCLDY    43  39  86 S5        30.21R
TAYLORVILLE    CLEAR     39  37  93 SE7       30.21F WCI  34
$$

...REGIONAL REPORTS...


CITY           SKY/WX    TMP DP  RH WIND       PRES   REMARKS
CHICAGO O`HARE MOCLDY    38  36  92 S6        30.21S WCI  33
KANKAKEE       PTCLDY    37  36  96 SE3       30.24R FOG
MOLINE         CLOUDY    43  38  82 SE5       30.14F
MOUNT VERNON   PTCLDY    36  30  80 CALM      30.23S
PITTSFIELD     MOCLDY    43  40  88 CALM      30.18F
QUINCY         CLOUDY    49  41  74 S10       30.15F
ROCKFORD       MOCLDY    37  34  89 SE7       30.20F WCI  32
$$


CITY           SKY/WX    TMP DP  RH WIND       PRES   REMARKS
BURLINGTON     CLOUDY    49  42  77 S12       30.12F
CEDAR RAPIDS   CLOUDY    48  42  80 S9        30.07F
DES MOINES     LGT RAIN  54  51  90 S7        30.04S
KIRKSVILLE     CLOUDY    51  46  83 S7        30.11S
OTTUMWA        CLOUDY    50  43  77 S7        30.06F
ST LOUIS       MOCLDY    49  41  74 S3        30.21S
$$


CITY           SKY/WX    TMP DP  RH WIND       PRES   REMARKS
TERRE HAUTE    CLEAR     38  37  97 CALM      30.26R FOG
EVANSVILLE     CLEAR     42  40  92 CALM      30.26R
INDIANAPOLIS   PTCLDY    38  37  97 CALM      30.25R FOG
LAFAYETTE      CLEAR     37  36  96 CALM      30.25S FOG
MADISON        MOCLDY    41  36  82 S9        30.16F
MILWAUKEE      MOCLDY    37  34  89 SW6       30.21R WCI  32
$$





USA.gov is the U.S. government's official web portal to all federal, state and local government web resources and services.